CW4666 Weather Reports


time (UTC)temp
C
wind
direction
speed
KPH
gust
KPH
rain 1hr
cm
rain 24hr
cm
rain mn
cm
humidity
%
barometer
mb
20200930030615 17 0 0.0 0.0 0.00 0.00 0.00 88 1014.9
20200930030128 17 0 0.0 0.0 0.00 0.00 0.00 88 1014.6
20200930020614 17 0 0.0 0.0 0.00 0.00 0.00 88 1015.3
20200930020120 17 0 0.0 0.0 0.00 0.00 0.00 88 1015.5
20200930010619 17 0 0.0 0.0 0.00 0.00 0.00 88 1015.4
20200930010120 17 0 0.0 0.0 0.00 0.00 0.00 88 1015.5
20200930000118 17 0 0.0 0.0 0.00 0.00 0.00 88 1015.6
20200929230121 17 0 0.0 0.0 0.00 0.00 0.00 88 1015.6
20200929210614 17 0 0.0 0.0 0.00 0.00 0.00 88 1015.6
20200929200613 17 0 0.0 0.0 0.00 0.00 0.00 88 1015.3
20200929190622 17 0 0.0 0.0 0.00 0.00 0.00 88 1014.5
20200929190122 17 0 0.0 0.0 0.00 0.00 0.00 88 1014.4
20200929180615 17 40 0.0 19.3 0.00 0.00 0.00 88 1014.2
20200929170613 19 10 4.8 25.7 0.00 0.00 0.00 82 1013.8
20200929160616 21 330 6.4 24.1 0.00 0.00 0.00 71 1013.6
20200929150618 21 0 4.8 19.3 0.00 0.00 0.00 73 1013.6
20200929120614 21 0 8.0 16.1 0.00 0.00 0.00 74 1015.1
20200929110615 22 247 0.0 3.2 0.00 0.00 0.00 77 1015.2
20200929100613 20 247 0.0 0.0 0.00 0.00 0.00 85 1015.4
20200929090615 18 248 0.0 0.0 0.00 0.00 0.00 95 1015.2
20200929080621 16 276 0.0 0.0 0.00 0.00 0.00 97 1015.0
20200929070119 17 0 0.0 0.0 0.00 0.00 0.00 81 1014.5
20200929050613 17 0 0.0 0.0 0.00 0.00 0.00 81 1013.9
20200929040622 17 0 0.0 0.0 0.00 0.00 0.00 81 1013.8